Hourly Weather Roundup
Issued by NWS Central Illinois

Home | Current Version | Previous Version | Text Only | Print | Product List | Glossary On
Versions: 1 2 3 4 5 6 7 8 9 10 11 12 13 14 15 16 17 18 19 20 21 22 23 24 25 26 27 28 29 30 31 32 33 34 35 36 37 38 39 40 41 42 43 44 45 46 47 48 49 50
778
NZUS43 KILX 140410
HWRILX

Area Weather Roundup
National Weather Service Lincoln IL
1000 PM CST WED DEC 13 2017

NOTE:  "FAIR" indicates few or no clouds below 12,000 feet, with
       no sigificant weather and/or obstructions to visibility.


CITY           SKY/WX    TMP DP  RH WIND       PRES   REMARKS
Bloomington    CLOUDY    30  22  72 N26G33    29.75R WCI  16
Champaign      CLOUDY    33  24  69 NW26G36   29.72R WCI  20
Danville       CLOUDY    30  22  70 NW22G33   29.67R WCI  17
Decatur        CLOUDY    34  26  72 NW22G30   29.75R WCI  22
Effingham      CLOUDY    37  29  72 W22G33    29.77R WCI  27
Flora          CLOUDY    40  29  65 NW24G35   29.75R WCI  30
Galesburg      CLOUDY    29  20  71 NW16G26   29.84R WCI  17
Jacksonville   CLOUDY    35  24  63 NW28G35   29.80R WCI  22
Lacon          CLOUDY    28  17  61 N15G22    29.79R WCI  17
Lawrenceville  CLOUDY    39  29  67 NW18      29.74R WCI  30
Litchfield     CLOUDY    37  25  63 NW21G30   29.78S WCI  26
$$


CITY           SKY/WX    TMP DP  RH WIND       PRES   REMARKS
Lincoln        CLOUDY    34  23  64 NW14G26   29.78R WCI  24
Macomb         CLOUDY    33  25  73 NW20G28   29.83R WCI  21
Mattoon        CLOUDY    35  27  72 NW28G36   29.72R WCI  22
Mt Carmel AP   CLOUDY    38  30  71 NW12G17   29.74R WCI  31
Olney-Noble AP CLOUDY    38  27  64 NW14G22   29.75R WCI  30
Paris AP       CLOUDY    34  27  76 NW21G30   29.70R WCI  23
Peoria         CLOUDY    30  19  63 N13G32    29.80R WCI  20
Pontiac        CLOUDY    29  19  67 NW18G30   29.75R WCI  16
Rantoul        CLOUDY    32  23  69 NW24G36   29.72R WCI  19
Robinson       CLOUDY    37  28  71 NW21G31   29.73R WCI  26
Springfield    CLOUDY    36  26  67 NW25G33   29.79R WCI  24
Taylorville    CLOUDY    35  25  68 NW20G33   29.79R WCI  24
$$

...REGIONAL REPORTS...


CITY           SKY/WX    TMP DP  RH WIND       PRES   REMARKS
Chicago O`Hare CLOUDY    29  20  69 N22G29    29.69R WCI  15
Kankakee       CLOUDY    28  19  66 NW18      29.70R WCI  16
Moline         CLOUDY    28  17  63 NW13G24   29.84R WCI  17
Mount Sterling CLOUDY    34  26  71 NW20G26   29.82R WCI  23
Mount Vernon   PTCLDY    40  30  67 VRB5      29.77R
Pittsfield     CLOUDY    37  24  58 NW16G24   29.83R WCI  28
Quincy         CLOUDY    36  23  59 NW17G28   29.83R WCI  26
Rockford       MOCLDY    24  17  74 N13       29.77R WCI  12
$$


CITY           SKY/WX    TMP DP  RH WIND       PRES   REMARKS
Burlington     CLOUDY    32  24  72 N18G32    29.83R WCI  20
Cedar Rapids   CLOUDY    26  18  71 N14       29.86R WCI  14
Des Moines     CLOUDY    33  21  61 N23G35    29.91R WCI  21
Kirksville     CLOUDY    36  24  62 NW17G29   29.89R WCI  26
Ottumwa        CLOUDY    32  24  72 N17G23    29.87R WCI  21
St Louis       CLOUDY    41  28  60 NW18      29.81R WCI  32
$$


CITY           SKY/WX    TMP DP  RH WIND       PRES   REMARKS
Terre Haute    CLOUDY    37  26  64 NW22G29   29.69R WCI  26
Evansville     PTCLDY    43  32  65 NW9       29.75R
Indianapolis   CLOUDY    35  25  66 NW23G37   29.62R WCI  23
Lafayette      CLOUDY    30  21  69 NW21G32   29.64R WCI  17
Madison        MOCLDY    20  15  81 N14G23    29.80R WCI   7
Milwaukee      LGT SNOW  26  22  84 N17G29    29.73R VSB 1   WCI  13
$$






USA.gov is the U.S. government's official web portal to all federal, state and local government web resources and services.